Regional Weather Roundup
Issued by NWS

Home | Current Version | Previous Version | Graphics & Text | Print | Product List | Glossary On
Versions: 1 2 3 4 5 6 7 8 9 10 11 12 13 14 15 16 17 18 19 20 21 22 23 24 25 26 27 28 29 30 31 32 33 34 35 36 37 38 39 40 41 42 43 44 45 46 47 48 49 50
000
ASUS43 KLSX 191907
RWRMO

WEATHER SUMMARY FOR MISSOURI
NATIONAL WEATHER SERVICE SPRINGFIELD MO
200 PM CDT SAT APR 19 2014

NOTE: "FAIR" INDICATES FEW OR NO CLOUDS BELOW 12,000 FEET WITH NO
       SIGNIFICANT WEATHER AND/OR OBSTRUCTIONS TO VISIBILITY.
       CURRENT SKY AND/OR WEATHER CONDITIONS ARE NOT AVAILABLE FOR
       CHILLICOTHE AND FARMINGTON.

MOZ001>031-035>038-043-044-053-054-192000-
...NORTHERN AND WESTERN MISSOURI...

CITY           SKY/WX    TMP DP  RH WIND       PRES   REMARKS
KANSAS CTY INT MOSUNNY   75  44  33 S20G28    30.12F
KANSAS C DTWN  MOSUNNY   77  46  33 S17G25    30.12F
LEE`S SUMMIT   MOSUNNY   74  45  35 S14G26    30.14F
ST JOSEPH      MOSUNNY   78  44  29 S21       30.09F
CHILLICOTHE      N/A     75  44  33 S17G23    30.15F
KIRKSVILLE     MOSUNNY   75  43  31 S15G22    30.18F

$$
MOZ066>068-077>081-088>096-101>105-192000-
...SOUTHWEST MISSOURI...

CITY           SKY/WX    TMP DP  RH WIND       PRES   REMARKS
SPRINGFIELD    MOSUNNY   74  44  34 SE9       30.19F
JOPLIN         PTSUNNY   73  43  33 S12       30.17F

$$
MOZ032>034-039>042-045>050-055>058-069>072-192000-
...CENTRAL MISSOURI...

CITY           SKY/WX    TMP DP  RH WIND       PRES   REMARKS
COLUMBIA       MOSUNNY   74  43  32 S7G20     30.19F
JEFFERSON CITY SUNNY     75  41  29 VRB7      30.18F
ROLLA          SUNNY     73  41  31 SE7       30.19F
SEDALIA        MOSUNNY   76  47  35 S16G22    30.18F
WHITEMAN AFB   PTSUNNY   75  39  27 S17G24    30.16F
OSAGE BEACH    MOSUNNY   73  39  29 S13       30.20F

$$
MOZ051-052-059>065-192000-
...EAST CENTRAL MISSOURI...

CITY           SKY/WX    TMP DP  RH WIND       PRES   REMARKS
ST LOUIS INTL  PTSUNNY   74  42  31 S10G17    30.23F
SPIRIT OF STL  SUNNY     73  41  31 E12G17    30.21F
ST CHARLES     SUNNY     72  42  34 E9        30.22F

$$
MOZ072>076-082>087-097>100-106>115-192000-
...SOUTH CENTRAL AND SOUTHEAST MISSOURI...

CITY           SKY/WX    TMP DP  RH WIND       PRES   REMARKS
CAPE GIRARDEAU SUNNY     75  42  30 CALM      30.20F
FARMINGTON     SUNNY     72  43  35 E6        30.24F
POPLAR BLUFF   SUNNY     74  40  29 VRB6      30.20F
WEST PLAINS    SUNNY     72  41  32 VRB5      30.22F

$$



USA.gov is the U.S. government's official web portal to all federal, state and local government web resources and services.